Location: Boda
(47.1872°N, 9.5454°E)
Time: 07:26:35
(UTC+00:00)

USA 215 - Pass Details

Date: 14 May 2021
Orbit: 1100 x 1107 km, 123.0° (Epoch: 14 June)

Event Time Altitude Azimuth Distance (km) Brightness Sun altitude
Exits shadow 01:17:24 29° 195° (SSW) 1,897 3.9 -18.9°
Maximum altitude 01:19:30 35° 230° (SW) 1,689 3.7 -18.7°
Drops below altitude 10° 01:25:24 10° 295° (WNW) 2,962 5.4 -18.2°
Sets 01:28:09 0° 304° (NW) 3,923 6.2 -18.0°
